Home   Weather   Reykjavik   Past weeks
Flag for Iceland

Past Weather in Reykjavik, Iceland — Yesterday and Last 2 Weeks

Now
50 °F

Passing clouds.


Feels Like: 47 °F
Forecast: N/A
Wind: 8 mph from West

Location: Reykjavik Airport

Current Time: May 24, 2019 at 3:55:08 pm

Latest Report: May 24, 2019 at 3:00 pm


Visibility: N/A

Pressure: 30.09 "Hg

Humidity: 67%

Dew Point: 39 °F

Location of ReykjavikLocation

Past Weather in Reykjavik — Graph

°F

Reykjavik Temperature Yesterday

Maximum temperature yesterday: 54 °F (at 4:00 pm)
Minimum temperature yesterday: 46 °F (at 5:00 am)
Average temperature yesterday: 49 °F

High & Low Weather Summary for the Past Weeks

 TemperatureHumidityPressure
High57 °F (May 14, 3:00 pm)93% (May 21, 4:00 am)30.42 "Hg (May 21, 4:00 am)
Low30 °F (May 10, 5:00 am)18% (May 12, 4:00 pm)29.80 "Hg (May 13, 12:00 pm)
Average47 °F70%30.09 "Hg
* Reported May 9 2:00 pm — May 24 2:00 pm, Reykjavik. Weather by CustomWeather, © 2019

Note: Actual official high and low records may vary slightly from our data, if they occured in-between our weather recording intervals... More about our weather records

Advertising

Reykjavik Weather History for the Previous 24 Hours

Scroll right to see more
 ConditionsComfort  
Time TempWeatherWind HumidityBarometerVisibility
2:00 pm
Fri, May 24
50 °FPassing clouds.7 mph67%30.09 "HgN/A
1:00 pm52 °FPassing clouds.6 mph67%30.09 "HgN/A
12:00 pm50 °FPassing clouds.7 mph71%30.12 "HgN/A
11:00 am50 °FScattered clouds.5 mph71%30.09 "HgN/A
10:00 am48 °FPartly sunny.5 mph76%30.12 "HgN/A
9:00 am48 °FBroken clouds.5 mph76%30.12 "HgN/A
8:00 am46 °FBroken clouds.5 mph82%30.12 "HgN/A
7:00 am45 °FLow clouds.6 mph87%30.12 "HgN/A
6:00 am45 °FLow clouds.7 mph87%30.12 "HgN/A
5:00 am45 °FPartly sunny.8 mph81%30.09 "HgN/A
4:00 am45 °FScattered clouds.6 mph81%30.09 "HgN/A
3:00 am45 °FPassing clouds.6 mph81%30.09 "HgN/A
2:00 am45 °FPassing clouds.6 mph81%30.09 "HgN/A
1:00 am45 °FClear.9 mph87%30.12 "Hg10 mi
12:00 am46 °FClear.9 mph87%30.09 "Hg10 mi
11:00 pm
Thu, May 23
48 °FSunny.8 mph82%30.09 "Hg10 mi
10:00 pm50 °FSunny.7 mph71%30.09 "Hg10 mi
9:00 pm50 °FSunny.8 mph71%30.12 "Hg10 mi
8:00 pm50 °FPassing clouds.8 mph71%30.12 "HgN/A
7:00 pm52 °FSunny.12 mph67%30.12 "Hg10 mi
6:00 pm52 °FSunny.15 mph62%30.12 "Hg10 mi
5:00 pm52 °FPassing clouds.15 mph62%30.12 "HgN/A
4:00 pm54 °FPassing clouds.10 mph63%30.12 "HgN/A
3:00 pm50 °FPassing clouds.10 mph76%30.15 "HgN/A
Weather by CustomWeather, © 2019

See weather overview